KLM646 KJFK-EHAM

Flight info

Callsign KLM646
Flight time N/A
Altitude 33000
Route MERIT DCT HFD DCT PUT DCT WITCH DCT ALLEX N565B TUDEP/M084F350 NATT NETKI/N0473F350 DCT REVNU DCT LIFFY UL975 WAL M16 DOLAS L603 LAMSO
Aircraft B77W/H-SDE1E2E3FGHIJ2J3J4J5M1RWXY/LB1D1

Departure

Time 2026-05-05 23:58
Airport John F. Kennedy International Airport (KJFK)

Arrival

Time N/A
Airport Amsterdam Airport Schiphol (EHAM)
Time Latitude Longitude Altitude Speed Heading
2026-05-05 23:23 40.64094 -73.78330 20 ft 0 kts 60°
2026-05-05 23:41 40.64087 -73.78346 23 ft 4 kts 60°
2026-05-05 23:41 40.64075 -73.78373 24 ft 4 kts 62°
2026-05-05 23:41 40.64067 -73.78401 26 ft 4 kts 89°
2026-05-05 23:42 40.64070 -73.78424 26 ft 4 kts 131°
2026-05-05 23:42 40.64088 -73.78442 25 ft 4 kts 154°
2026-05-05 23:42 40.64108 -73.78456 23 ft 1 kts 150°
2026-05-05 23:42 40.64112 -73.78458 23 ft 0 kts 150°
2026-05-05 23:45 40.64091 -73.78442 25 ft 4 kts 149°
2026-05-05 23:45 40.64066 -73.78423 26 ft 4 kts 150°
2026-05-05 23:45 40.64036 -73.78402 23 ft 7 kts 150°
2026-05-05 23:45 40.63991 -73.78371 20 ft 7 kts 151°
2026-05-05 23:46 40.63948 -73.78337 20 ft 7 kts 149°
2026-05-05 23:46 40.63902 -73.78307 23 ft 7 kts 161°
2026-05-05 23:46 40.63853 -73.78294 22 ft 7 kts 172°
2026-05-05 23:46 40.63802 -73.78286 20 ft 7 kts 175°
2026-05-05 23:47 40.63752 -73.78284 21 ft 7 kts 177°
2026-05-05 23:47 40.63701 -73.78277 21 ft 7 kts 170°
2026-05-05 23:47 40.63651 -73.78265 21 ft 7 kts 170°
2026-05-05 23:47 40.63600 -73.78256 21 ft 7 kts 176°
2026-05-05 23:48 40.63552 -73.78272 21 ft 7 kts 208°
2026-05-05 23:48 40.63508 -73.78306 22 ft 7 kts 210°
2026-05-05 23:48 40.63462 -73.78327 25 ft 7 kts 172°
2026-05-05 23:48 40.63427 -73.78279 24 ft 7 kts 123°
2026-05-05 23:49 40.63400 -73.78221 25 ft 7 kts 121°
2026-05-05 23:49 40.63374 -73.78162 23 ft 7 kts 120°
2026-05-05 23:49 40.63348 -73.78103 24 ft 7 kts 119°
2026-05-05 23:49 40.63332 -73.78039 23 ft 7 kts 99°
2026-05-05 23:50 40.63332 -73.77971 21 ft 7 kts 85°
2026-05-05 23:50 40.63341 -73.77904 22 ft 7 kts 76°
2026-05-05 23:50 40.63368 -73.77839 24 ft 9 kts 52°
2026-05-05 23:50 40.63424 -73.77775 26 ft 12 kts 35°
2026-05-05 23:51 40.63500 -73.77714 24 ft 13 kts 30°
2026-05-05 23:51 40.63577 -73.77653 22 ft 13 kts 31°
2026-05-05 23:51 40.63654 -73.77591 22 ft 13 kts 31°
2026-05-05 23:51 40.63732 -73.77532 22 ft 13 kts 30°
2026-05-05 23:52 40.63810 -73.77471 24 ft 13 kts 30°
2026-05-05 23:52 40.63888 -73.77410 23 ft 13 kts 30°
2026-05-05 23:52 40.63965 -73.77352 24 ft 13 kts 31°
2026-05-05 23:52 40.64043 -73.77289 24 ft 13 kts 31°
2026-05-05 23:53 40.64120 -73.77227 25 ft 13 kts 30°
2026-05-05 23:53 40.64199 -73.77168 25 ft 13 kts 30°
2026-05-05 23:53 40.64275 -73.77107 23 ft 13 kts 31°
2026-05-05 23:53 40.64352 -73.77046 24 ft 13 kts 31°
2026-05-05 23:54 40.64434 -73.76997 20 ft 13 kts 14°
2026-05-05 23:54 40.64523 -73.76973 20 ft 13 kts 22°
2026-05-05 23:54 40.64601 -73.76915 23 ft 13 kts 30°
2026-05-05 23:54 40.64680 -73.76855 25 ft 13 kts 30°
2026-05-05 23:55 40.64759 -73.76793 28 ft 13 kts 31°
2026-05-05 23:55 40.64837 -73.76732 25 ft 14 kts 33°
2026-05-05 23:55 40.64924 -73.76664 20 ft 15 kts 30°
2026-05-05 23:55 40.65011 -73.76596 20 ft 15 kts 31°
2026-05-05 23:56 40.65081 -73.76540 20 ft 10 kts 34°
2026-05-05 23:56 40.65092 -73.76459 22 ft 10 kts 106°
2026-05-05 23:56 40.65060 -73.76380 20 ft 10 kts 122°
2026-05-05 23:56 40.65026 -73.76353 20 ft 6 kts 185°
2026-05-05 23:57 40.64988 -73.76380 20 ft 7 kts 210°
2026-05-05 23:57 40.64867 -73.76478 20 ft 47 kts 212°
2026-05-05 23:57 40.64321 -73.76905 25 ft 135 kts 211°
2026-05-05 23:57 40.63292 -73.77710 169 ft 194 kts 210°
2026-05-05 23:58 40.62194 -73.78594 1496 ft 175 kts 211°
2026-05-05 23:58 40.61146 -73.79446 2356 ft 186 kts 215°
2026-05-05 23:58 40.59991 -73.80450 2555 ft 211 kts 216°
2026-05-05 23:58 40.58727 -73.81581 3021 ft 224 kts 217°
2026-05-05 23:59 40.57447 -73.82783 3657 ft 229 kts 224°
2026-05-05 23:59 40.56578 -73.84548 4244 ft 234 kts 255°
2026-05-05 23:59 40.56578 -73.86684 5033 ft 241 kts 283°
2026-05-05 23:59 40.57454 -73.88609 5828 ft 254 kts 311°
2026-05-06 00:00 40.58994 -73.89847 6591 ft 269 kts 334°
2026-05-06 00:00 40.60863 -73.90282 7246 ft 285 kts 354°
2026-05-06 00:00 40.62864 -73.89911 7954 ft 298 kts 15°
2026-05-06 00:00 40.64689 -73.88537 8575 ft 307 kts 33°
2026-05-06 00:01 40.66399 -73.86801 9193 ft 313 kts 35°
2026-05-06 00:01 40.68101 -73.85023 9999 ft 312 kts 35°
2026-05-06 00:01 40.69818 -73.83237 10575 ft 319 kts 34°
2026-05-06 00:01 40.71643 -73.81368 10742 ft 342 kts 34°
2026-05-06 00:02 40.73590 -73.79390 10931 ft 364 kts 34°
2026-05-06 00:02 40.75652 -73.77305 11078 ft 382 kts 34°
2026-05-06 00:02 40.77797 -73.75139 11226 ft 394 kts 34°
2026-05-06 00:02 40.79971 -73.72948 11484 ft 401 kts 34°
2026-05-06 00:03 40.82204 -73.70696 11817 ft 406 kts 34°
2026-05-06 00:03 40.84451 -73.68434 12279 ft 407 kts 34°
2026-05-06 00:03 40.86712 -73.66155 12730 ft 409 kts 34°
2026-05-06 00:03 40.88982 -73.63867 13166 ft 411 kts 34°
2026-05-06 00:04 40.91263 -73.61566 13614 ft 413 kts 34°
2026-05-06 00:04 40.93556 -73.59251 13977 ft 416 kts 34°
2026-05-06 00:04 40.95866 -73.56917 14314 ft 419 kts 34°
2026-05-06 00:04 40.98187 -73.54569 14676 ft 421 kts 34°
2026-05-06 00:05 41.02914 -73.49780 15970 ft 430 kts 35°
2026-05-06 00:05 41.05277 -73.47382 16684 ft 434 kts 35°
2026-05-06 00:05 41.07688 -73.44933 17311 ft 440 kts 35°
2026-05-06 00:06 41.10132 -73.42447 17919 ft 446 kts 36°
2026-05-06 00:06 41.12639 -73.39893 18518 ft 450 kts 36°
2026-05-06 00:06 41.15092 -73.37390 19134 ft 453 kts 36°
2026-05-06 00:06 41.17597 -73.34830 19786 ft 454 kts 36°
2026-05-06 00:07 41.20110 -73.32260 20414 ft 457 kts 35°
2026-05-06 00:07 41.22629 -73.29683 21013 ft 460 kts 35°
2026-05-06 00:07 41.25180 -73.27071 21580 ft 463 kts 35°
2026-05-06 00:07 41.27741 -73.24447 22150 ft 466 kts 35°
2026-05-06 00:08 41.30316 -73.21806 22720 ft 469 kts 35°
2026-05-06 00:08 41.32905 -73.19148 23299 ft 472 kts 35°
2026-05-06 00:08 41.35498 -73.16418 23781 ft 476 kts 37°
2026-05-06 00:08 41.37990 -73.13468 24230 ft 481 kts 41°
2026-05-06 00:09 41.40296 -73.10258 24559 ft 480 kts 47°
2026-05-06 00:09 41.42168 -73.06511 24671 ft 492 kts 62°
2026-05-06 00:09 41.43608 -73.02354 25055 ft 493 kts 65°
2026-05-06 00:09 41.44964 -72.98177 25284 ft 491 kts 64°
2026-05-06 00:10 41.46467 -72.94085 25300 ft 492 kts 59°
2026-05-06 00:10 41.48181 -72.90192 25333 ft 495 kts 56°
2026-05-06 00:10 41.50045 -72.86296 25637 ft 500 kts 55°
2026-05-06 00:10 41.51927 -72.82374 26142 ft 501 kts 55°
2026-05-06 00:11 41.53766 -72.78419 26647 ft 502 kts 56°
2026-05-06 00:11 41.55564 -72.74404 27054 ft 505 kts 57°
2026-05-06 00:11 41.57336 -72.70334 27389 ft 509 kts 57°
2026-05-06 00:11 41.59106 -72.66221 27744 ft 512 kts 57°
2026-05-06 00:12 41.60884 -72.62090 28089 ft 514 kts 57°
2026-05-06 00:12 41.62677 -72.57955 28455 ft 516 kts 57°
2026-05-06 00:12 41.64490 -72.53797 28804 ft 518 kts 56°
2026-05-06 00:12 41.66309 -72.49696 29141 ft 519 kts 56°
2026-05-06 00:13 41.68176 -72.45556 29548 ft 519 kts 55°
2026-05-06 00:13 41.70045 -72.41439 29936 ft 518 kts 55°
2026-05-06 00:13 41.71923 -72.37305 29891 ft 519 kts 55°
2026-05-06 00:14 41.75635 -72.29079 29915 ft 514 kts 55°
2026-05-06 00:14 41.79318 -72.20853 29920 ft 514 kts 56°
2026-05-06 00:15 41.82996 -72.12603 30097 ft 517 kts 56°
2026-05-06 00:15 41.84833 -72.08474 30532 ft 513 kts 55°
2026-05-06 00:15 41.86650 -72.04381 31042 ft 509 kts 55°
2026-05-06 00:15 41.88454 -72.00315 31515 ft 505 kts 55°
2026-05-06 00:16 41.90251 -71.96265 31923 ft 503 kts 55°
2026-05-06 00:16 41.92036 -71.92239 32278 ft 502 kts 55°
2026-05-06 00:16 41.93804 -71.88282 32559 ft 497 kts 53°
2026-05-06 00:17 41.97933 -71.80998 32577 ft 484 kts 40°
2026-05-06 00:17 42.02941 -71.74862 32720 ft 490 kts 36°
2026-05-06 00:17 42.05511 -71.71825 32822 ft 493 kts 37°
2026-05-06 00:18 42.08056 -71.68709 32876 ft 495 kts 38°
2026-05-06 00:18 42.12971 -71.62246 32883 ft 492 kts 41°
2026-05-06 00:19 42.16909 -71.56713 32874 ft 492 kts 42°
2026-05-06 00:19 42.21691 -71.50103 32875 ft 492 kts 41°
2026-05-06 00:20 42.27356 -71.42566 32886 ft 492 kts 40°
2026-05-06 00:20 42.31449 -71.37188 32849 ft 493 kts 40°
2026-05-06 00:21 42.36389 -71.30672 32849 ft 494 kts 40°
2026-05-06 00:21 42.41279 -71.24180 32845 ft 495 kts 40°
2026-05-06 00:22 42.46201 -71.17621 32845 ft 496 kts 41°
2026-05-06 00:22 42.51123 -71.11052 32840 ft 496 kts 40°
2026-05-06 00:23 42.56039 -71.04474 32864 ft 497 kts 41°
2026-05-06 00:23 42.60956 -70.97877 32860 ft 497 kts 40°
2026-05-06 00:24 42.65871 -70.91273 32856 ft 496 kts 41°
2026-05-06 00:24 42.70323 -70.84297 32842 ft 493 kts 53°
2026-05-06 00:25 42.73768 -70.76094 32854 ft 503 kts 59°
2026-05-06 00:25 42.77225 -70.67904 32827 ft 495 kts 53°
2026-05-06 00:26 42.81194 -70.60146 32833 ft 503 kts 51°
2026-05-06 00:26 42.85201 -70.52337 32837 ft 507 kts 52°
2026-05-06 00:27 42.89078 -70.44305 32836 ft 508 kts 54°
2026-05-06 00:27 42.92872 -70.36159 32844 ft 507 kts 54°
2026-05-06 00:28 42.96640 -70.28020 32853 ft 506 kts 54°
2026-05-06 00:28 43.00412 -70.19907 32855 ft 506 kts 54°
2026-05-06 00:29 43.04186 -70.11796 32865 ft 505 kts 54°
2026-05-06 00:29 43.07934 -70.03733 32874 ft 504 kts 54°
2026-05-06 00:30 43.11693 -69.95626 32875 ft 504 kts 55°
2026-05-06 00:30 43.15449 -69.87499 32872 ft 504 kts 55°
2026-05-06 00:31 43.19199 -69.79360 32871 ft 504 kts 55°
2026-05-06 00:31 43.22936 -69.71222 32871 ft 505 kts 55°
2026-05-06 00:32 43.26670 -69.63070 32871 ft 505 kts 55°
2026-05-06 00:32 43.30378 -69.54952 32870 ft 505 kts 55°
2026-05-06 00:33 43.34102 -69.46775 32869 ft 505 kts 56°
2026-05-06 00:33 43.37828 -69.38572 32871 ft 505 kts 56°
2026-05-06 00:34 43.41549 -69.30358 32873 ft 506 kts 56°
2026-05-06 00:34 43.45268 -69.22124 32877 ft 506 kts 56°
2026-05-06 00:35 43.48981 -69.13881 32884 ft 506 kts 56°
2026-05-06 00:35 43.52664 -69.05681 32893 ft 507 kts 56°
2026-05-06 00:36 43.56376 -68.97391 32896 ft 507 kts 56°
2026-05-06 00:36 43.60074 -68.89111 32896 ft 508 kts 56°
2026-05-06 00:37 43.63773 -68.80806 32897 ft 508 kts 56°
2026-05-06 00:37 43.67471 -68.72476 32897 ft 508 kts 57°
2026-05-06 00:38 43.71139 -68.64193 32898 ft 509 kts 57°
2026-05-06 00:38 43.74825 -68.55845 32899 ft 509 kts 57°
2026-05-06 00:39 43.78510 -68.47475 32898 ft 509 kts 57°
2026-05-06 00:39 43.82195 -68.39081 32901 ft 510 kts 57°
2026-05-06 00:40 43.85871 -68.30681 32905 ft 510 kts 57°
2026-05-06 00:40 43.89543 -68.22266 32905 ft 510 kts 57°
2026-05-06 00:41 43.93189 -68.13888 32904 ft 510 kts 57°
2026-05-06 00:41 43.96848 -68.05450 32907 ft 510 kts 58°
2026-05-06 00:42 44.00499 -67.97004 32907 ft 510 kts 58°
2026-05-06 00:42 44.04149 -67.88543 32910 ft 510 kts 58°
2026-05-06 00:43 44.07795 -67.80078 32912 ft 510 kts 58°
2026-05-06 00:43 44.11426 -67.71617 32911 ft 510 kts 58°
2026-05-06 00:44 44.15030 -67.63185 32912 ft 510 kts 58°
2026-05-06 00:44 44.18649 -67.54689 32915 ft 509 kts 58°
2026-05-06 00:45 44.22262 -67.46184 32917 ft 509 kts 59°
2026-05-06 00:45 44.25871 -67.37667 32916 ft 509 kts 59°
2026-05-06 00:46 44.29470 -67.29148 32919 ft 509 kts 59°
2026-05-06 00:46 44.33058 -67.20628 32919 ft 509 kts 59°
2026-05-06 00:47 44.36647 -67.12081 32918 ft 509 kts 59°
2026-05-06 00:47 44.40205 -67.03590 32921 ft 509 kts 59°
2026-05-06 00:48 44.44090 -66.95349 32912 ft 505 kts 52°
2026-05-06 00:48 44.48562 -66.87857 32934 ft 500 kts 46°
2026-05-06 00:49 44.53391 -66.80708 32925 ft 509 kts 45°
2026-05-06 00:49 44.58181 -66.73444 32901 ft 510 kts 47°
2026-05-06 00:50 44.62869 -66.65952 32896 ft 510 kts 48°
2026-05-06 00:50 44.67478 -66.58393 32899 ft 509 kts 49°
2026-05-06 00:51 44.72071 -66.50837 32885 ft 508 kts 49°
2026-05-06 00:51 44.76677 -66.43281 32907 ft 507 kts 49°
2026-05-06 00:52 44.81251 -66.35784 32912 ft 507 kts 49°
2026-05-06 00:52 44.85844 -66.28240 32896 ft 507 kts 49°
2026-05-06 00:53 44.90425 -66.20690 32929 ft 507 kts 49°
2026-05-06 00:53 44.95006 -66.13117 32939 ft 507 kts 49°
2026-05-06 00:54 44.99584 -66.05526 32919 ft 507 kts 49°
2026-05-06 00:54 45.04130 -65.97970 32915 ft 508 kts 49°
2026-05-06 00:55 45.08707 -65.90342 32923 ft 508 kts 49°
2026-05-06 00:55 45.13280 -65.82700 32908 ft 509 kts 49°
2026-05-06 00:56 45.17859 -65.75027 32893 ft 510 kts 49°
2026-05-06 00:56 45.22432 -65.67343 32900 ft 510 kts 49°
2026-05-06 00:57 45.27007 -65.59635 32897 ft 510 kts 49°
2026-05-06 00:57 45.31554 -65.51952 32898 ft 511 kts 49°
2026-05-06 00:58 45.36122 -65.44212 32896 ft 511 kts 49°
2026-05-06 00:58 45.40696 -65.36443 32893 ft 511 kts 49°
2026-05-06 00:59 45.45254 -65.28677 32896 ft 511 kts 49°
2026-05-06 00:59 45.49809 -65.20896 32912 ft 511 kts 49°
2026-05-06 01:00 45.54332 -65.13148 32886 ft 511 kts 50°
2026-05-06 01:00 45.58877 -65.05342 32887 ft 511 kts 50°
2026-05-06 01:01 45.63420 -64.97515 32881 ft 511 kts 50°
2026-05-06 01:01 45.67956 -64.89679 32874 ft 512 kts 50°
2026-05-06 01:02 45.72493 -64.81819 32863 ft 512 kts 50°
2026-05-06 01:02 45.77034 -64.73932 32858 ft 513 kts 50°
2026-05-06 01:03 45.81569 -64.66031 32850 ft 514 kts 50°
2026-05-06 01:03 45.86108 -64.58106 32836 ft 514 kts 50°
2026-05-06 01:04 45.90646 -64.50162 32834 ft 514 kts 50°
2026-05-06 01:04 45.95174 -64.42204 32823 ft 515 kts 50°
2026-05-06 01:05 45.99700 -64.34217 32835 ft 515 kts 50°
2026-05-06 01:05 46.04224 -64.26218 32841 ft 515 kts 50°
2026-05-06 01:06 46.08726 -64.18242 32831 ft 516 kts 50°
2026-05-06 01:06 46.13246 -64.10213 32834 ft 516 kts 50°
2026-05-06 01:07 46.17770 -64.02152 32837 ft 516 kts 50°
2026-05-06 01:07 46.22287 -63.94078 32828 ft 517 kts 50°
2026-05-06 01:08 46.26802 -63.85984 32834 ft 517 kts 50°
2026-05-06 01:08 46.31315 -63.77869 32834 ft 518 kts 50°
2026-05-06 01:09 46.35064 -63.71110 32836 ft 519 kts 50°
2026-05-06 01:09 46.40318 -63.61611 32831 ft 519 kts 50°